FENGYUN 1C DEB

Satellite information

Favourite Embed

Satellite Type and Status

DEBRISIN ORBIT

Key statistics

Satellite FENGYUN 1C DEB at a glance.

Uptime

9715

Days in orbit

Revolutions

≈ 14.4

Per day

Orbit

SSO

Sun Synchronous Orbit

Inclination

99.0

Latest

Satellite identification and parameters

Extended collection of information and parameters for FENGYUN 1C DEB.

Object identification

Identified? True

Debris? True

Object name: FENGYUN 1C DEB

International designator: 1999-025CFD

Object number (NORAD): 31754

Object ID (CCSDS): 31754

Country: PEOPLES REPUBLIC OF CHINA (PRC)

Current information (Y/N): Y

RCS size: SMALL

Orbital parameters

Period: 99.843 minutes

Inclination: 99.0401 deg

SMA: 7129.172 km

Apoapsis: 786.089 km

Periapsis: 715.984 km

RAAN: 312.149 deg

Eccentricy: 0.00491677

Argument of periapsis: 217.4565 deg

Mean anomaly: 142.3193 deg

Mean motion: 14.42262007 rev/day

Mean motion (dot): 0.00005205 rev/day2

B* drag term: 0.0015693263 1/REarth

Two-line elements (TLE)

Creation date: Dec. 13, 2025, 4:32 a.m.

Reference frame: TEME

Reference center: EARTH

Epoch: Dec. 12, 2025, 8:23 p.m. UTC

TLE line 0: 0 FENGYUN 1C DEB

TLE line 1: 1 31754U 99025CFD 25346.84972857 .00005205 00000-0 15693-2 0 9993

TLE line 2: 2 31754 99.0401 312.1490 0049168 217.4565 142.3193 14.42262007969918

Live tracking on map

Real-time ground track for satellite FENGYUN 1C DEB.

In-orbit conjunctions

A list of the most updated potential collisions computed for object FENGYUN 1C DEB.

Target Orbit TCA Probability of collision Miss distance Type
THOR BURNER 2 R/B SSO 2025-06-21 18:28:03 0.0002051327 183.0 (m) ROCKET BODY
DELTA 1 DEB LEO 2025-04-07 10:16:03 0.0001212696 321.0 (m) DEBRIS
AUREOLE 3 LEO 2024-11-26 09:39:56 0.0001655186 493.0 (m) PAYLOAD
SL-16 DEB LEO 2024-11-11 17:14:06 0.0001037586 532.0 (m) DEBRIS
FENGYUN 1C DEB SSO 2024-11-10 05:49:53 0.0002218325 961.0 (m) DEBRIS

Associated space launch

Chinese polar orbiting meteorological satellite

FENGYUN 1C DEB was lifted into orbit during the mission ‘Long March 4B | Feng Yun 1C’, on board a Long March 4B space rocket.

The launch took place on May 10, 1999, 1:33 a.m. from Launch Complex 7.

For more information about the launch, click the button.

Launch to space Long March 4B | Feng Yun 1C
Long March 4B | Feng Yun 1C

Agency: N/A

Status: Launch Successful

Launch date: May 10, 1999, 1:33 a.m. UTC

Rocket: Long March 4B

Launch pad: Launch Complex 7

Location: Taiyuan Satellite Launch Center, People's Republic of China

...

Latest news about this satellite

There are no fresh news available about this satellite. Check back as we update our databases every day.


Newsletter sign-up

Weekly statistics, charts and insights to help you stay on top of the space industry.